When you browse on this site, cookies collect data to enhance your experience and personalize the content and advertising you see.
Visit our Privacy Policy to learn more. By continuing to use the site, you agree to this use of cookies and data.
  • In Switzerland
  • List of Countries
  • For 7 days
  • Water Temperature
  • Satellite Maps
  • Weather Map
  • Weather Widgets
  • user-avatar
    Login

    Hourly Weather Serhiivka

    Today, 13 December, Thursday

    Time Temperature Precipitation Wind Pressure Humidity
    00:00 -1°C° 0 mm 4 mps 744 mmHg 91%
    01:00 -1°C° 0 mm 4 mps 744 mmHg 91%
    02:00 -1°C° 0 mm 4 mps 745 mmHg 90%
    03:00 -1°C° 0 mm 4 mps 745 mmHg 91%
    04:00 -2°C° 0 mm 4 mps 745 mmHg 90%
    05:00 -2°C° 0 mm 4 mps 746 mmHg 90%
    06:00 -2°C° 0 mm 4 mps 746 mmHg 89%
    07:00 -1°C° 0 mm 3 mps 747 mmHg 90%
    08:00 -1°C° 0 mm 3 mps 747 mmHg 90%
    09:00 -1°C° 0 mm 3 mps 748 mmHg 91%
    10:00 -1°C° 0 mm 3 mps 748 mmHg 88%
    11:00 -1°C° 0 mm 3 mps 749 mmHg 86%
    12:00 -1°C° 0 mm 4 mps 749 mmHg 84%
    13:00 0°C° 0 mm 3 mps 750 mmHg 84%
    14:00 0°C° 0 mm 3 mps 750 mmHg 84%
    15:00 +1°C° 0 mm 2 mps 750 mmHg 84%
    16:00 +1°C° 0 mm 2 mps 751 mmHg 85%
    17:00 +1°C° 0 mm 2 mps 751 mmHg 87%
    18:00 -1°C° 0 mm 2 mps 752 mmHg 88%
    19:00 -1°C° 0 mm 2 mps 752 mmHg 87%
    20:00 +1°C° 0 mm 2 mps 752 mmHg 87%
    21:00 +2°C° 0 mm 1 mps 753 mmHg 86%
    22:00 -1°C° 0 mm 2 mps 753 mmHg 85%
    23:00 -1°C° 0 mm 2 mps 753 mmHg 84%

    Tomorrow, 14 December, Friday

    Time Temperature Precipitation Wind Pressure Humidity
    00:00 -1°C° 0 mm 2 mps 753 mmHg 83%
    01:00 -1°C° 0 mm 2 mps 753 mmHg 84%
    02:00 -2°C° 0 mm 2 mps 753 mmHg 84%
    03:00 -2°C° 0 mm 2 mps 754 mmHg 85%
    04:00 -2°C° 0 mm 2 mps 754 mmHg 85%
    05:00 0°C° 0 mm 1 mps 754 mmHg 85%
    06:00 0°C° 0 mm 1 mps 754 mmHg 86%
    07:00 0°C° 0 mm 1 mps 754 mmHg 86%
    08:00 0°C° 0 mm 1 mps 754 mmHg 86%
    09:00 0°C° 0 mm 1 mps 755 mmHg 86%
    10:00 +1°C° 0 mm 1 mps 755 mmHg 84%
    11:00 +2°C° 0 mm 1 mps 755 mmHg 83%
    12:00 +2°C° 0 mm 1 mps 755 mmHg 82%
    13:00 +2°C° 0 mm 1 mps 755 mmHg 83%
    14:00 +2°C° 0 mm 1 mps 755 mmHg 84%
    15:00 +1°C° 0 mm 0 mps 755 mmHg 85%
    16:00 +1°C° 0 mm 0 mps 755 mmHg 87%
    17:00 0°C° 0 mm 0 mps 756 mmHg 88%
    18:00 -1°C° 0 mm 0 mps 756 mmHg 89%
    19:00 -1°C° 0 mm 0 mps 756 mmHg 89%
    20:00 0°C° 0 mm 1 mps 756 mmHg 89%
    21:00 0°C° 0 mm 1 mps 756 mmHg 89%
    22:00 0°C° 0 mm 1 mps 757 mmHg 90%
    23:00 0°C° 0 mm 1 mps 757 mmHg 90%

    Day after tomorrow, 15 December, Saturday

    Time Temperature Precipitation Wind Pressure Humidity
    00:00 -1°C° 0 mm 1 mps 757 mmHg 90%
    01:00 -1°C° 0 mm 1 mps 757 mmHg 90%
    02:00 -1°C° 0 mm 1 mps 757 mmHg 90%
    03:00 -1°C° 0 mm 1 mps 757 mmHg 90%
    04:00 -1°C° 0 mm 1 mps 758 mmHg 91%
    05:00 -1°C° 0 mm 1 mps 758 mmHg 91%
    06:00 -1°C° 0 mm 1 mps 758 mmHg 91%
    07:00 -1°C° 0 mm 1 mps 758 mmHg 91%
    08:00 -1°C° 0 mm 1 mps 758 mmHg 91%
    09:00 -1°C° 0 mm 1 mps 759 mmHg 91%
    10:00 -1°C° 0 mm 1 mps 759 mmHg 88%
    11:00 0°C° 0 mm 1 mps 759 mmHg 85%
    12:00 +1°C° 0 mm 1 mps 760 mmHg 83%
    13:00 0°C° 0 mm 1 mps 760 mmHg 83%
    14:00 -2°C° 0 mm 2 mps 760 mmHg 83%
    15:00 -2°C° 0 mm 2 mps 760 mmHg 84%
    16:00 -2°C° 0 mm 2 mps 760 mmHg 86%
    17:00 -3°C° 0 mm 2 mps 761 mmHg 88%
    18:00 -4°C° 0 mm 2 mps 761 mmHg 91%
    19:00 -4°C° 0 mm 2 mps 761 mmHg 90%
    20:00 -4°C° 0 mm 2 mps 761 mmHg 90%
    21:00 -4°C° 0 mm 2 mps 761 mmHg 89%
    22:00 -4°C° 0 mm 2 mps 761 mmHg 89%
    23:00 -5°C° 0 mm 2 mps 762 mmHg 88%

    16 December, Sunday

    Time Temperature Precipitation Wind Pressure Humidity
    00:00 -5°C° 0 mm 2 mps 762 mmHg 87%
    01:00 -5°C° 0 mm 2 mps 762 mmHg 87%
    02:00 -5°C° 0 mm 2 mps 762 mmHg 86%
    03:00 -6°C° 0 mm 3 mps 762 mmHg 86%
    04:00 -6°C° 0 mm 3 mps 762 mmHg 85%
    05:00 -6°C° 0 mm 3 mps 762 mmHg 85%
    06:00 -6°C° 0 mm 3 mps 762 mmHg 85%
    07:00 -6°C° 0 mm 3 mps 762 mmHg 85%
    08:00 -7°C° 0 mm 4 mps 762 mmHg 84%
    09:00 -5°C° 0 mm 4 mps 762 mmHg 84%
    10:00 -5°C° 0 mm 4 mps 762 mmHg 82%
    11:00 -5°C° 0 mm 4 mps 762 mmHg 81%
    12:00 -4°C° 0 mm 4 mps 762 mmHg 80%
    13:00 -4°C° 0 mm 4 mps 762 mmHg 80%
    14:00 -4°C° 0 mm 4 mps 762 mmHg 80%
    15:00 -4°C° 0 mm 4 mps 762 mmHg 80%
    16:00 -4°C° 0 mm 4 mps 762 mmHg 81%
    17:00 -5°C° 0 mm 4 mps 762 mmHg 83%
    18:00 -5°C° 0 mm 4 mps 762 mmHg 85%
    19:00 -7°C° 0 mm 5 mps 762 mmHg 84%
    20:00 -7°C° 0 mm 5 mps 762 mmHg 83%
    21:00 -7°C° 0 mm 5 mps 762 mmHg 83%
    22:00 -7°C° 0 mm 5 mps 762 mmHg 81%
    23:00 -8°C° 0 mm 5 mps 761 mmHg 78%

    17 December, Monday

    Time Temperature Precipitation Wind Pressure Humidity
    00:00 -8°C° 0 mm 5 mps 761 mmHg 76%
    01:00 -8°C° 0 mm 5 mps 761 mmHg 75%
    02:00 -8°C° 0 mm 5 mps 761 mmHg 74%
    03:00 -10°C° 0 mm 5 mps 761 mmHg 72%
    04:00 -10°C° 0 mm 5 mps 761 mmHg 72%
    05:00 -10°C° 0 mm 5 mps 761 mmHg 71%
    06:00 -10°C° 0 mm 5 mps 760 mmHg 70%
    07:00 -11°C° 0 mm 5 mps 761 mmHg 70%
    08:00 -11°C° 0 mm 5 mps 761 mmHg 69%
    09:00 -11°C° 0 mm 5 mps 761 mmHg 69%
    10:00 -10°C° 0 mm 5 mps 760 mmHg 67%
    11:00 -10°C° 0 mm 5 mps 760 mmHg 65%
    12:00 -8°C° 0 mm 5 mps 760 mmHg 63%
    13:00 -9°C° 0 mm 6 mps 760 mmHg 63%
    14:00 -9°C° 0 mm 6 mps 760 mmHg 64%
    15:00 -9°C° 0 mm 6 mps 760 mmHg 65%
    16:00 -9°C° 0 mm 6 mps 760 mmHg 68%
    17:00 -10°C° 0 mm 6 mps 760 mmHg 71%
    18:00 -10°C° 0 mm 6 mps 760 mmHg 74%
    19:00 -10°C° 0 mm 6 mps 760 mmHg 76%
    20:00 -11°C° 0 mm 6 mps 760 mmHg 78%
    21:00 -11°C° 0 mm 6 mps 760 mmHg 80%
    22:00 -11°C° 0 mm 5 mps 760 mmHg 81%
    23:00 -11°C° 0 mm 5 mps 760 mmHg 81%

    18 December, Tuesday

    Time Temperature Precipitation Wind Pressure Humidity
    00:00 -11°C° 0 mm 5 mps 760 mmHg 82%
    01:00 -11°C° 0 mm 5 mps 760 mmHg 83%
    02:00 -11°C° 0 mm 5 mps 760 mmHg 83%
    03:00 -11°C° 0 mm 5 mps 760 mmHg 84%
    04:00 -11°C° 0 mm 5 mps 760 mmHg 84%
    05:00 -11°C° 0 mm 5 mps 760 mmHg 85%
    06:00 -11°C° 0 mm 5 mps 760 mmHg 85%
    07:00 -11°C° 0 mm 5 mps 760 mmHg 85%
    08:00 -11°C° 0 mm 5 mps 760 mmHg 85%
    09:00 -11°C° 0 mm 5 mps 760 mmHg 85%
    10:00 -11°C° 0 mm 5 mps 760 mmHg 82%
    11:00 -10°C° 0 mm 5 mps 760 mmHg 80%
    12:00 -10°C° 0 mm 5 mps 760 mmHg 77%
    13:00 -10°C° 0 mm 5 mps 760 mmHg 76%
    14:00 -8°C° 0 mm 5 mps 760 mmHg 75%
    15:00 -8°C° 0 mm 5 mps 759 mmHg 75%
    16:00 -10°C° 0 mm 5 mps 759 mmHg 76%
    17:00 -10°C° 0 mm 5 mps 759 mmHg 77%
    18:00 -10°C° 0 mm 5 mps 760 mmHg 78%
    19:00 -10°C° 0 mm 5 mps 760 mmHg 79%
    20:00 -10°C° 0 mm 5 mps 760 mmHg 79%
    21:00 -10°C° 0 mm 5 mps 760 mmHg 80%
    22:00 -10°C° 0 mm 5 mps 759 mmHg 80%
    23:00 -10°C° 0 mm 5 mps 759 mmHg 80%
    Show more